Location: Unspecified
(45.3712°N, 0.6436°E)
Time: 03:36:28
(UTC+01:00)

Envisat - Visible Passes

Search period start: 21 November 2018 00:00
Search period end: 01 December 2018 00:00
Orbit: 764 x 766 km, 98.2° (Epoch: 20 November)

Date Brightness Start Highest point End Pass type
(mag) Time Alt. Az. Time Alt. Az. Time Alt. Az.
21 Nov 4.8 17:55:52 10° ENE 17:56:21 10° NE 17:56:50 10° NE visible
21 Nov 2.9 19:31:40 27° SSE 19:34:24 66° ENE 19:39:27 10° N visible
21 Nov 5.5 21:11:52 14° WSW 21:13:53 17° W 21:17:07 10° NW visible
22 Nov 3.6 18:54:38 16° ESE 18:57:51 32° ENE 19:02:20 10° N visible
22 Nov 4.4 20:34:50 26° SW 20:36:49 35° W 20:41:27 10° NNW visible
23 Nov 4.4 18:18:23 10° E 18:21:30 17° ENE 18:24:38 10° NNE visible
23 Nov 3.1 19:57:46 35° S 19:59:56 75° WSW 20:05:02 10° NNW visible
24 Nov 3.0 19:20:42 27° SE 19:23:15 53° ENE 19:28:12 10° N visible
24 Nov 5.3 21:00:54 18° WSW 21:02:35 21° W 21:06:23 10° NW visible
25 Nov 5.9 07:26:22 10° NE 07:29:20 15° E 07:32:17 10° SE visible
25 Nov 3.9 18:43:36 15° ESE 18:46:45 26° ENE 18:50:56 10° N visible
25 Nov 4.0 20:23:49 32° SW 20:25:34 43° W 20:30:25 10° NNW visible
26 Nov 4.6 18:08:01 10° E 18:10:28 14° ENE 18:12:55 10° NNE visible
26 Nov 2.8 19:46:43 38° SSE 19:48:44 88° ENE 19:53:51 10° NNW visible
26 Nov 5.9 21:26:54 11° WSW 21:28:27 12° W 21:30:21 10° WNW visible
27 Nov 3.3 19:09:35 25° SE 19:12:06 43° ENE 19:16:54 10° N visible
27 Nov 4.9 20:49:47 22° WSW 20:51:17 26° W 20:55:30 10° NW visible
28 Nov 6.1 07:16:01 10° ENE 07:18:00 12° E 07:19:58 10° ESE visible
28 Nov 4.1 18:32:25 12° ESE 18:35:41 22° ENE 18:39:29 10° NNE visible
28 Nov 3.6 20:12:38 37° SSW 20:14:19 54° W 20:19:20 10° NNW visible
29 Nov 4.8 17:58:04 10° ENE 17:59:27 11° NE 18:00:50 10° NE visible
29 Nov 2.8 19:35:26 35° SSE 19:37:33 72° ENE 19:42:38 10° N visible
29 Nov 5.7 21:15:38 14° WSW 21:17:07 15° W 21:20:03 10° NW visible
30 Nov 5.7 07:40:02 10° NE 07:43:52 21° E 07:47:40 10° SE visible
30 Nov 3.5 18:58:14 20° ESE 19:00:59 35° ENE 19:05:34 10° N visible
30 Nov 4.6 20:35:30 10° SSW 20:40:00 32° W 20:44:33 10° NNW visible
